Hourly Weather Roundup
Issued by NWS Central Illinois

Home | Current Version | Previous Version | Text Only | Print | Product List | Glossary On
Versions: 1 2 3 4 5 6 7 8 9 10 11 12 13 14 15 16 17 18 19 20 21 22 23 24 25 26 27 28 29 30 31 32 33 34 35 36 37 38 39 40 41 42 43 44 45 46 47 48 49 50
000
NZUS43 KILX 241010
HWRILX

Area Weather Roundup
National Weather Service Lincoln IL
500 AM CDT SAT JUN 24 2017

NOTE:  "FAIR" indicates few or no clouds below 12,000 feet, with
       no sigificant weather and/or obstructions to visibility.


CITY           SKY/WX    TMP DP  RH WIND       PRES   REMARKS
Bloomington    CLEAR     60  55  83 W9        29.98R
Champaign      PTCLDY    57  54  89 W6        29.96R
Danville       PTCLDY    58  56  94 W6        29.92R
Decatur        PTCLDY    61  55  81 W7        29.98R
Effingham      CLEAR     60  58  92 W3        30.00R
Flora          MOCLDY    64  58  81 W6        29.99R
Galesburg      CLEAR     56  53  91 W6        30.00S
Jacksonville   CLEAR     58  55  89 W6        30.02R
Lacon          CLEAR     61  56  83 NW9       29.95S
Lawrenceville  CLOUDY    62  58  86 W6        29.97R
Litchfield     PTCLDY    60  55  85 NW6       30.01R
$$


CITY           SKY/WX    TMP DP  RH WIND       PRES   REMARKS
Lincoln        CLEAR     62  57  84 W6        29.98S
Macomb         CLEAR     57  54  88 NW7       30.03R
Mattoon        CLEAR     59  57  93 NW8       29.96R
Mt Carmel AP   MOCLDY    60  58  92 W6        29.98R
Olney-Noble AP CLOUDY    61  61 100 W5        29.99R
Paris AP       CLEAR     57  56  97 W5        29.97R
Peoria         CLEAR     61  56  83 NW7       29.98R
Pontiac        CLEAR     60  59  97 W7        29.95S
Rantoul        CLEAR     60  57  92 W6        29.95R
Robinson       CLOUDY    59  57  92 W3        29.97R
Springfield    CLEAR     60  57  89 W7        30.00R
Taylorville    PTCLDY    60  55  84 W7        30.00R
$$

...REGIONAL REPORTS...


CITY           SKY/WX    TMP DP  RH WIND       PRES   REMARKS
Chicago O`Hare PTCLDY    62  55  77 W9        29.90R
Kankakee       CLEAR     59  57  94 W8        29.92F
Moline         CLEAR     62  52  69 NW10      29.97S
Mount Sterling CLEAR     58  54  86 W5        30.03R
Mount Vernon   CLOUDY    59  59 100 CALM      30.01R
Pittsfield     CLEAR     61  56  82 NW6       30.04S
Quincy         CLEAR     59  54  83 W5        30.03R
Rockford       CLEAR     60  54  80 NW8       29.93R
$$


CITY           SKY/WX    TMP DP  RH WIND       PRES   REMARKS
Burlington     CLEAR     59  53  80 NW8       30.01R
Cedar Rapids   CLEAR     53  53 100 W7        30.00R
Des Moines     CLEAR     55  48  77 W7        30.07R
Kirksville     CLEAR     56  52  86 NW5       30.07R
Ottumwa        PTCLDY    53  51  93 SW6       30.05R
St Louis       PTCLDY    65  55  70 W6        30.03R
$$


CITY           SKY/WX    TMP DP  RH WIND       PRES   REMARKS
Terre Haute    CLOUDY    62  55  77 W5        29.95R
Evansville     PTCLDY    65  59  81 W3        29.98R
Indianapolis   CLOUDY    61  56  83 NW9       29.92R
Lafayette      PTCLDY    58  56  93 W5        29.92R
Madison        CLEAR     58  54  86 NW5       29.90R
Milwaukee      PTCLDY    63  54  72 W9        29.86S
$$





USA.gov is the U.S. government's official web portal to all federal, state and local government web resources and services.